PBO Station Position Time Series. Reference Frame : NAM14
Format Version,1.1.0
4-character ID,BRNB
Station name,BRNB
Begin Date, 2007-05-04
End Date, 2013-06-16
Release Date, 2021-02-19
Reference position, 49.2750555220 North Latitude, -123.0218210960 East Longitude, 23.07023 meters elevation,
Date, North (mm), East (mm), Vertical (mm), North Std. Deviation (mm), East Std. Deviation (mm),              Vertical Std. Deviation (mm), Quality,
2007-05-04,0.00, 0.00, 0.00, 2.23, 1.53, 6.91, repro,
2007-05-05,-1.81, -0.12, -3.64, 3.06, 2.06, 9.57, repro,
2007-05-06,-1.85, 0.30, -10.55, 2.37, 1.60, 7.32, repro,
2007-05-07,-0.91, -1.97, -10.84, 2.25, 1.54, 7.00, repro,
2007-05-08,-1.42, -1.13, 4.08, 2.33, 1.59, 7.25, repro,
2007-05-09,-0.53, 0.08, -1.61, 2.25, 1.54, 6.95, repro,
2007-05-10,-0.62, 0.38, -5.77, 2.33, 1.60, 7.31, repro,
2007-05-11,-5.08, -1.10, -2.31, 2.36, 1.62, 7.44, repro,
2007-05-12,-1.05, -1.39, -3.69, 2.26, 1.53, 6.99, repro,
2007-05-13,-2.43, -1.44, 2.51, 2.26, 1.54, 7.01, repro,
2007-05-14,-0.41, -0.67, -6.45, 2.28, 1.56, 7.09, repro,
2007-05-15,0.31, -1.98, -5.54, 2.23, 1.53, 6.91, repro,
2007-05-16,-2.17, -0.95, 1.11, 2.44, 1.71, 7.64, repro,
2007-05-22,-1.73, -1.67, -8.61, 2.26, 1.52, 6.94, repro,
2007-05-23,-1.93, -1.73, -0.41, 2.27, 1.54, 6.98, repro,
2007-05-24,-1.96, -1.74, -4.38, 2.32, 1.59, 7.13, repro,
2007-05-25,-1.64, -1.06, -2.43, 2.30, 1.58, 7.13, repro,
2007-05-26,-1.52, -1.64, 4.52, 2.25, 1.54, 6.96, repro,
2007-05-27,-3.91, -2.67, 8.87, 2.24, 1.53, 6.88, repro,
2007-05-28,-3.61, -1.98, 5.86, 2.25, 1.53, 6.93, repro,
2007-05-29,-1.87, -2.24, -1.86, 2.24, 1.53, 6.89, repro,
2007-05-30,-6.39, -1.56, -0.23, 7.93, 4.48, 20.36, repro,
2007-06-01,-3.32, -1.79, 0.53, 2.25, 1.54, 6.95, repro,
2007-06-02,-1.20, -0.59, 2.68, 2.26, 1.54, 6.95, repro,
2007-06-03,-0.81, -1.76, 3.30, 2.25, 1.54, 6.93, repro,
2007-06-04,-1.41, -0.82, 3.88, 2.27, 1.55, 7.00, repro,
2007-06-05,-2.51, -0.98, 6.78, 2.35, 1.59, 7.29, repro,
2007-06-06,-1.95, -3.38, 3.92, 2.31, 1.59, 7.23, repro,
2007-06-08,-2.17, -1.46, 6.73, 2.24, 1.54, 6.89, repro,
2007-06-23,0.22, -2.51, 1.36, 2.24, 1.55, 6.91, repro,
2007-06-24,-1.81, -1.12, -6.22, 2.32, 1.60, 7.17, repro,
2007-06-25,-0.41, -1.31, -1.28, 2.24, 1.54, 6.90, repro,
2007-06-26,-2.39, -0.75, -9.35, 2.25, 1.54, 6.95, repro,
2007-06-27,-2.90, -1.14, 3.87, 2.25, 1.53, 6.92, repro,
2007-06-28,-3.64, -0.82, 3.52, 2.24, 1.54, 6.91, repro,
2007-06-29,-1.81, -1.33, 2.21, 2.32, 1.59, 7.22, repro,
2007-06-30,2.15, -3.08, 13.73, 5.50, 3.09, 14.43, repro,
2007-07-01,-11.97, 1.10, -4.92, 6.63, 3.96, 17.17, repro,
2007-07-02,-1.55, -1.94, 10.03, 3.11, 2.02, 9.46, repro,
2007-07-03,-2.53, 4.87, 22.86, 7.64, 4.37, 20.07, repro,
2007-07-04,-4.60, -0.34, 3.97, 3.22, 2.10, 9.91, repro,
2007-07-05,-1.91, -1.44, 4.34, 2.23, 1.53, 6.86, repro,
2007-07-06,-2.17, -1.05, 1.85, 2.25, 1.54, 6.90, repro,
2007-07-07,-3.37, -1.72, 7.91, 2.24, 1.54, 6.90, repro,
2007-07-08,-3.24, -1.64, 15.95, 2.25, 1.54, 6.92, repro,
2007-07-09,-3.64, -1.16, 6.59, 2.24, 1.54, 6.89, repro,
2007-07-10,-2.95, -1.29, -1.16, 2.27, 1.55, 7.01, repro,
2007-07-11,-1.67, -2.06, 12.55, 2.24, 1.53, 6.91, repro,
2007-07-12,-3.42, -0.73, 11.13, 2.26, 1.54, 6.93, repro,
2007-07-13,-1.84, -0.05, 12.21, 2.50, 1.80, 7.81, repro,
2007-07-14,-4.23, -1.41, 11.80, 2.31, 1.60, 7.23, repro,
2007-07-15,-4.72, -0.58, 9.40, 2.25, 1.54, 6.92, repro,
2007-07-16,-3.88, -0.79, 13.76, 2.28, 1.55, 6.99, repro,
2007-07-17,-4.02, -3.05, 6.35, 2.30, 1.58, 7.10, repro,
2007-07-18,-3.27, -2.26, -1.84, 2.26, 1.55, 6.96, repro,
2007-07-19,-4.03, -0.91, 7.54, 2.25, 1.53, 6.87, repro,
2007-07-20,-5.36, -0.11, 14.14, 2.28, 1.58, 7.12, repro,
2007-07-21,-2.53, -1.33, 1.93, 2.29, 1.57, 7.11, repro,
2007-07-22,-1.70, -1.66, 10.06, 2.28, 1.56, 7.07, repro,
2007-07-23,-4.04, -1.82, 10.51, 2.28, 1.55, 6.99, repro,
2007-07-24,-1.18, -1.72, 13.61, 2.27, 1.55, 6.92, repro,
2007-07-25,-3.67, -1.25, 5.18, 2.53, 1.69, 7.79, repro,
2007-07-26,-2.24, -1.73, 7.75, 2.26, 1.54, 6.91, repro,
2007-07-27,-5.04, -2.54, -1.19, 2.27, 1.54, 6.94, repro,
2007-07-28,-3.93, -2.46, 16.72, 2.24, 1.53, 6.90, repro,
2007-07-29,-5.13, -2.73, 13.86, 2.23, 1.54, 6.91, repro,
2007-07-30,-3.37, -1.32, 7.63, 2.23, 1.53, 6.82, repro,
2007-07-31,-2.69, -1.36, 5.49, 2.24, 1.53, 6.87, repro,
2007-08-01,-2.86, -1.17, 11.18, 2.28, 1.53, 6.95, repro,
2007-08-02,-4.59, -2.73, 7.80, 2.26, 1.55, 6.96, repro,
2007-08-03,-4.51, -1.85, 12.26, 2.23, 1.53, 6.91, repro,
2007-08-04,-3.37, -2.19, 14.10, 2.23, 1.52, 6.83, repro,
2007-08-05,-3.37, -1.84, 16.59, 2.23, 1.52, 6.81, repro,
2007-08-06,-2.92, -1.83, 19.10, 2.31, 1.57, 7.03, repro,
2007-08-07,-4.64, -1.13, 15.83, 2.31, 1.58, 7.08, repro,
2007-08-08,-3.71, -1.70, 12.35, 2.26, 1.55, 6.94, repro,
2007-08-09,-3.69, -2.35, 18.11, 2.23, 1.54, 6.89, repro,
2007-08-10,-4.30, -1.84, 19.05, 2.24, 1.52, 6.82, repro,
2007-08-11,-4.42, -2.13, 14.62, 2.25, 1.53, 6.85, repro,
2007-08-12,-1.02, -2.67, 10.53, 2.25, 1.52, 6.83, repro,
2007-08-13,-3.51, -2.65, 7.54, 2.24, 1.53, 6.87, repro,
2007-08-14,-3.31, -2.02, 8.05, 2.39, 1.66, 7.42, repro,
2007-08-15,-3.97, -1.93, 10.73, 2.38, 1.64, 7.33, repro,
2007-08-16,-7.43, -0.76, 20.87, 4.59, 2.62, 11.99, repro,
2007-08-17,-3.61, -2.08, 12.53, 2.41, 1.60, 7.21, repro,
2007-08-18,-3.44, -3.03, 10.95, 2.47, 1.65, 7.47, repro,
2007-08-19,-4.42, -2.23, 19.90, 2.41, 1.63, 7.36, repro,
2007-08-20,-2.66, -2.96, 13.47, 2.37, 1.60, 7.23, repro,
2007-08-21,-1.44, -3.13, 12.90, 2.35, 1.58, 7.07, repro,
2007-08-22,-1.86, -2.89, 6.11, 2.36, 1.58, 7.09, repro,
2007-08-23,-2.29, -2.38, 10.92, 2.30, 1.54, 6.92, repro,
2007-08-24,-4.92, -1.99, 13.75, 2.42, 1.64, 7.34, repro,
2007-08-25,-3.90, -3.23, 19.03, 2.39, 1.62, 7.30, repro,
2007-08-26,-3.43, -3.13, 14.66, 2.41, 1.66, 7.41, repro,
2007-08-27,-2.29, -2.39, 8.51, 2.39, 1.65, 7.29, repro,
2007-08-28,-4.90, -2.57, 9.15, 2.36, 1.61, 7.22, repro,
2007-08-29,-3.08, -3.00, 14.50, 2.33, 1.60, 7.13, repro,
2007-08-30,-4.51, -1.66, 15.16, 2.36, 1.61, 7.22, repro,
2007-08-31,-5.07, -2.79, 17.70, 2.42, 1.65, 7.41, repro,
2007-09-01,-2.67, -3.88, 16.14, 2.35, 1.61, 7.26, repro,
2007-09-02,-4.43, -2.84, 16.48, 2.37, 1.62, 7.22, repro,
2007-09-03,-3.55, -2.96, 13.88, 2.35, 1.61, 7.18, repro,
2007-09-04,-1.89, -4.61, 14.01, 2.36, 1.62, 7.19, repro,
2007-09-05,-3.80, -4.63, 20.26, 2.41, 1.63, 7.36, repro,
2007-09-06,-4.57, -2.06, 19.60, 3.58, 2.19, 9.98, repro,
2007-09-07,0.46, -5.13, 31.90, 5.95, 4.01, 17.31, repro,
2007-09-08,-4.13, -3.07, 3.55, 2.43, 1.68, 7.34, repro,
2007-09-09,-1.82, -2.83, 6.72, 2.73, 1.94, 8.70, repro,
2007-09-10,-6.26, -0.62, 27.71, 3.92, 2.38, 10.73, repro,
2007-09-11,-5.34, -3.22, 16.78, 2.36, 1.62, 7.24, repro,
2007-09-12,-5.19, -2.70, 14.21, 2.37, 1.61, 7.24, repro,
2007-09-13,-4.27, -2.21, 8.89, 2.36, 1.62, 7.26, repro,
2007-09-14,-3.01, -2.93, 12.93, 2.35, 1.61, 7.18, repro,
2007-09-15,-5.27, -1.86, 20.14, 2.41, 1.63, 7.41, repro,
2007-09-16,-4.30, -3.52, 23.75, 2.39, 1.64, 7.32, repro,
2007-09-17,-4.82, -4.00, 16.05, 2.38, 1.63, 7.28, repro,
2007-09-18,-4.98, -3.29, 9.20, 2.31, 1.62, 7.23, repro,
2007-09-19,-1.66, -3.70, 5.34, 2.94, 2.23, 9.85, repro,
2007-09-20,-3.48, -1.21, 16.00, 2.26, 1.54, 6.93, repro,
2007-09-21,-5.38, -2.11, 23.18, 2.31, 1.56, 7.02, repro,
2007-09-22,-4.85, -2.38, 15.82, 2.33, 1.56, 7.02, repro,
2007-09-23,-3.53, -2.83, 12.21, 2.32, 1.58, 7.05, repro,
2007-09-24,-3.58, -1.83, 7.02, 2.43, 1.62, 7.41, repro,
2007-09-25,-2.77, -0.70, 5.79, 2.33, 1.56, 7.06, repro,
2007-09-26,-4.62, -2.02, 22.24, 2.32, 1.54, 6.98, repro,
2007-09-27,-6.52, -3.06, 15.54, 2.29, 1.57, 7.11, repro,
2007-09-28,-4.73, -2.16, 25.31, 2.25, 1.55, 6.93, repro,
2007-09-29,-4.18, -2.98, 22.57, 2.31, 1.59, 7.10, repro,
2007-09-30,-3.82, -1.99, 18.72, 2.30, 1.57, 7.03, repro,
2007-10-01,-3.29, -1.48, 16.13, 2.32, 1.56, 7.04, repro,
2007-10-02,-4.45, -1.95, 11.97, 2.43, 1.68, 7.50, repro,
2007-10-03,-4.95, -1.07, 17.02, 2.32, 1.59, 7.17, repro,
2007-10-04,-5.24, -1.35, 16.19, 2.31, 1.59, 7.24, repro,
2007-10-05,-2.36, -0.95, 16.21, 2.38, 1.64, 7.28, repro,
2007-10-06,-3.48, -1.89, 16.97, 2.40, 1.65, 7.37, repro,
2007-10-07,-5.13, 0.09, 12.93, 2.37, 1.59, 7.15, repro,
2007-10-08,-4.75, -1.18, 6.45, 2.51, 1.65, 7.52, repro,
2007-10-09,-3.47, -0.32, 18.64, 2.48, 1.78, 7.79, repro,
2007-10-10,-1.12, -1.77, 10.66, 2.56, 1.71, 7.71, repro,
2007-10-11,-4.03, -3.32, 14.88, 2.38, 1.63, 7.24, repro,
2007-10-12,-4.85, -2.88, 21.04, 2.37, 1.64, 7.35, repro,
2007-10-13,-4.87, -1.75, 12.00, 2.32, 1.58, 7.09, repro,
2007-10-14,-6.01, -1.69, 13.41, 2.29, 1.58, 7.02, repro,
2007-10-15,-5.49, -2.22, 15.64, 2.35, 1.60, 7.16, repro,
2007-10-16,-3.80, -2.00, 22.06, 2.27, 1.54, 6.95, repro,
2007-10-17,-4.37, -1.02, 17.31, 2.32, 1.58, 7.09, repro,
2007-10-18,-2.59, -1.03, 21.26, 2.31, 1.58, 7.11, repro,
2007-10-19,-5.31, -2.35, 24.86, 2.28, 1.55, 6.96, repro,
2007-10-20,-4.46, -2.27, 26.24, 2.35, 1.60, 7.04, repro,
2007-10-21,-5.73, -0.83, 9.85, 2.98, 1.87, 8.74, repro,
2007-10-22,-6.28, -1.68, 12.27, 2.32, 1.58, 7.24, repro,
2007-10-23,-3.35, -0.17, 9.05, 2.32, 1.59, 7.16, repro,
2007-10-24,-3.04, -1.70, 10.05, 2.33, 1.59, 7.16, repro,
2007-10-25,-5.43, -0.70, 1.28, 2.31, 1.58, 7.01, repro,
2007-10-26,-0.24, -1.98, 6.77, 2.32, 1.62, 7.24, repro,
2007-10-27,-2.86, -1.23, 3.41, 2.32, 1.58, 7.09, repro,
2007-10-28,-4.48, -1.84, 6.82, 2.32, 1.58, 7.12, repro,
2007-10-29,-3.91, -0.95, 12.04, 2.30, 1.58, 7.09, repro,
2007-10-30,-2.70, -1.28, 0.87, 2.29, 1.58, 7.05, repro,
2007-10-31,-2.72, -2.28, 5.86, 2.34, 1.61, 7.20, repro,
2007-11-01,-2.83, -1.15, 19.44, 2.32, 1.61, 7.16, repro,
2007-11-02,-1.56, -1.92, 14.61, 4.75, 3.90, 16.70, repro,
2007-11-03,-5.29, 0.57, 9.53, 2.24, 1.55, 6.92, repro,
2007-11-04,-3.12, -0.73, 8.16, 2.20, 1.56, 7.06, repro,
2007-11-05,-1.47, 0.46, -2.73, 4.15, 2.97, 13.18, repro,
2007-11-06,-2.03, -2.87, -4.04, 2.37, 1.64, 7.28, repro,
2007-11-07,-2.32, -1.89, 2.03, 2.25, 1.54, 6.88, repro,
2007-11-08,-4.27, -1.28, 5.08, 2.34, 1.59, 7.16, repro,
2007-11-09,-3.99, -0.92, 11.50, 2.34, 1.59, 7.13, repro,
2007-11-10,-5.30, -0.18, 12.46, 2.27, 1.56, 6.98, repro,
2007-11-11,-2.11, -2.86, 20.37, 2.26, 1.55, 6.95, repro,
2007-11-12,-3.99, -2.29, 20.58, 2.26, 1.55, 6.93, repro,
2007-11-13,-2.94, -1.85, 11.19, 2.25, 1.54, 6.92, repro,
2007-11-14,-2.72, 0.04, -0.26, 2.25, 1.54, 6.92, repro,
2007-11-15,-3.88, -1.16, 9.37, 2.30, 1.58, 7.05, repro,
2007-11-16,-4.70, -2.30, 13.20, 2.24, 1.55, 6.94, repro,
2007-11-17,-3.99, -2.07, 16.32, 2.28, 1.55, 7.01, repro,
2007-11-18,-2.07, -2.02, 12.86, 2.25, 1.56, 6.95, repro,
2007-11-19,-1.82, -2.05, 7.05, 2.24, 1.53, 6.85, repro,
2007-11-20,-2.88, -0.41, 5.36, 2.26, 1.59, 7.06, repro,
2007-11-21,-3.30, -0.54, -4.77, 2.25, 1.56, 6.94, repro,
2007-11-22,-2.67, -1.62, 1.66, 2.24, 1.57, 6.97, repro,
2007-11-23,-2.11, -2.20, 7.06, 2.60, 1.79, 7.75, repro,
2007-11-24,-4.25, -3.26, 6.96, 3.81, 2.41, 10.72, repro,
2007-11-25,-3.20, -1.64, 0.21, 2.41, 1.65, 7.38, repro,
2007-11-26,-2.48, 0.04, 8.86, 2.33, 1.65, 7.35, repro,
2007-11-27,-3.16, -0.78, 4.18, 2.32, 1.64, 7.27, repro,
2007-11-28,-4.26, -0.52, -2.15, 2.25, 1.57, 7.00, repro,
2007-11-29,-2.68, -1.67, 3.06, 2.29, 1.61, 7.13, repro,
2007-11-30,-1.68, -2.14, 1.45, 2.31, 1.60, 7.09, repro,
2007-12-01,-3.29, -0.20, 6.45, 2.28, 1.61, 7.16, repro,
2007-12-02,-2.20, 2.41, 16.59, 2.28, 1.60, 7.13, repro,
2007-12-03,-3.51, 0.18, 4.49, 2.41, 1.67, 7.61, repro,
2007-12-04,-2.75, -0.23, -1.49, 2.29, 1.61, 7.12, repro,
2007-12-05,-3.39, -1.25, 4.06, 2.35, 1.67, 7.47, repro,
2007-12-06,-2.47, -1.32, 2.46, 2.31, 1.65, 7.34, repro,
2007-12-07,-2.33, -1.16, 5.69, 2.36, 1.68, 7.41, repro,
2007-12-08,-1.97, -0.75, 1.26, 2.27, 1.60, 7.11, repro,
2007-12-09,-2.48, -0.85, -1.91, 2.36, 1.72, 7.68, repro,
2007-12-10,-0.47, -1.19, -1.56, 2.32, 1.67, 7.30, repro,
2007-12-11,-4.55, -1.88, 3.23, 2.33, 1.65, 7.24, repro,
2007-12-12,-3.55, -1.03, -12.06, 2.31, 1.59, 7.09, repro,
2007-12-13,-3.87, 1.03, -11.60, 2.33, 1.62, 7.19, repro,
2007-12-14,-3.28, 0.05, -5.81, 2.30, 1.58, 7.01, repro,
2007-12-15,-3.60, -0.66, 8.35, 2.32, 1.58, 7.03, repro,
2007-12-16,-1.50, -2.75, 5.41, 2.49, 1.70, 7.64, repro,
2007-12-17,-4.78, -2.93, 16.18, 2.32, 1.59, 7.08, repro,
2007-12-18,-4.17, 0.13, 2.87, 2.34, 1.60, 7.16, repro,
2007-12-19,-3.08, 0.30, 18.31, 3.23, 2.34, 10.72, repro,
2007-12-20,-3.71, -1.89, 0.68, 2.31, 1.58, 7.05, repro,
2007-12-21,-6.20, -4.86, -11.91, 4.97, 3.51, 14.44, repro,
2007-12-22,-3.74, 0.43, -24.79, 2.32, 1.62, 7.14, repro,
2007-12-23,-4.20, 0.16, -7.69, 2.32, 1.60, 7.15, repro,
2007-12-24,-3.07, -0.80, -13.53, 2.31, 1.59, 7.14, repro,
2007-12-25,-2.45, 0.58, -5.59, 2.29, 1.57, 7.01, repro,
2007-12-26,-4.10, 0.31, -24.30, 2.33, 1.60, 7.15, repro,
2007-12-27,-1.74, 0.34, -24.00, 2.33, 1.60, 7.17, repro,
2007-12-28,-1.10, 0.25, -7.22, 2.37, 1.61, 7.29, repro,
2007-12-29,-2.98, -0.06, -1.19, 2.34, 1.59, 7.20, repro,
2007-12-30,-1.91, 0.78, -4.04, 2.34, 1.59, 7.22, repro,
2007-12-31,-0.82, -0.09, -11.52, 2.31, 1.55, 7.00, repro,
2008-01-01,-2.02, 1.54, -11.09, 2.74, 1.92, 8.54, repro,
2008-01-02,-3.88, -0.30, -12.79, 2.27, 1.54, 6.91, repro,
2008-01-03,-1.03, 0.04, 2.64, 2.28, 1.53, 6.91, repro,
2008-01-04,-2.39, -0.89, 7.92, 2.31, 1.56, 7.03, repro,
2008-01-05,-4.57, -2.27, 17.80, 2.28, 1.54, 6.94, repro,
2008-01-06,-2.59, -0.37, 4.85, 2.27, 1.52, 6.85, repro,
2008-01-07,-2.96, -1.12, -8.62, 2.26, 1.52, 6.80, repro,
2008-01-08,-3.86, 1.24, -13.37, 2.31, 1.55, 6.97, repro,
2008-01-09,-3.93, 0.79, -9.02, 2.31, 1.55, 6.98, repro,
2008-01-10,-5.03, 0.89, -8.22, 2.26, 1.53, 6.83, repro,
2008-01-11,-2.13, 0.30, -11.09, 2.28, 1.54, 6.93, repro,
2008-01-12,-4.42, 0.69, -9.63, 2.47, 1.65, 7.41, repro,
2008-01-13,-2.00, 0.20, -10.85, 2.25, 1.54, 6.83, repro,
2008-01-14,-2.03, 0.87, -9.69, 2.27, 1.54, 6.91, repro,
2008-01-15,-0.33, 0.27, -6.27, 3.11, 2.27, 10.20, repro,
2008-01-16,-2.42, 0.37, -9.17, 2.30, 1.56, 7.03, repro,
2008-01-17,-0.30, 1.23, -3.95, 2.32, 1.56, 7.07, repro,
2008-01-18,-1.72, 1.56, 0.32, 2.27, 1.58, 7.09, repro,
2008-01-19,0.86, 0.55, -16.40, 2.26, 1.55, 6.95, repro,
2008-01-20,0.18, 1.80, -17.68, 2.22, 1.54, 6.88, repro,
2008-01-21,-0.58, 1.08, -4.25, 2.26, 1.53, 6.90, repro,
2008-01-22,-1.19, 1.24, -9.42, 2.27, 1.53, 6.88, repro,
2008-01-23,-2.39, 2.43, -3.44, 2.27, 1.55, 6.97, repro,
2008-01-24,-1.15, 0.51, 6.32, 2.26, 1.55, 6.96, repro,
2008-01-26,0.33, -3.00, -9.12, 7.35, 4.99, 24.58, repro,
2008-02-04,-0.27, 0.49, -13.16, 2.57, 1.81, 7.98, repro,
2008-02-05,-1.83, 0.47, -14.43, 2.28, 1.60, 7.02, repro,
2008-02-06,-0.89, -0.02, -0.40, 2.27, 1.59, 7.03, repro,
2008-02-07,0.00, 4.34, -24.20, 2.30, 1.57, 7.12, repro,
2008-02-08,0.89, -0.46, -0.21, 2.59, 1.75, 7.67, repro,
2008-02-09,0.10, 1.26, -19.26, 2.25, 1.54, 6.90, repro,
2008-02-10,-1.81, 0.30, -15.13, 2.23, 1.53, 6.84, repro,
2008-02-11,0.59, 1.60, -15.35, 2.21, 1.53, 6.82, repro,
2008-02-16,-1.15, -1.46, -24.53, 3.14, 2.26, 10.08, repro,
2008-02-17,3.58, 2.77, -3.08, 4.88, 3.82, 15.79, repro,
2008-02-18,0.29, 0.98, -12.58, 2.24, 1.54, 6.92, repro,
2008-02-19,-0.49, 2.10, -11.91, 2.26, 1.54, 6.89, repro,
2008-02-20,0.28, -0.02, -1.30, 2.26, 1.54, 6.94, repro,
2008-02-21,-1.21, 0.74, 4.46, 2.42, 1.66, 7.33, repro,
2008-02-22,-1.34, 0.25, -0.77, 2.24, 1.53, 6.87, repro,
2008-02-23,-0.47, 0.74, -0.97, 2.24, 1.54, 6.91, repro,
2008-02-24,-1.77, 0.82, 4.28, 2.26, 1.53, 6.88, repro,
2008-02-25,0.02, 0.81, -5.90, 2.24, 1.53, 6.85, repro,
2008-02-26,-0.90, -0.05, -8.06, 2.27, 1.54, 6.89, repro,
2008-02-27,3.18, 4.13, -19.19, 5.97, 4.38, 19.10, repro,
2008-02-28,0.22, 0.09, -20.70, 2.24, 1.52, 6.83, repro,
2008-02-29,-1.76, 1.61, -11.81, 2.24, 1.53, 6.87, repro,
2008-03-01,1.20, 1.37, -10.84, 2.23, 1.51, 6.79, repro,
2008-03-02,0.63, 1.00, -10.43, 2.24, 1.52, 6.79, repro,
2008-03-03,-1.00, 0.81, -13.30, 2.21, 1.52, 6.78, repro,
2008-03-04,-0.78, -0.05, -19.68, 2.22, 1.52, 6.80, repro,
2008-03-05,0.39, 2.26, -15.92, 2.26, 1.58, 7.03, repro,
2008-03-06,-0.20, 2.07, -13.20, 2.22, 1.51, 6.79, repro,
2008-03-07,0.19, 1.72, -8.31, 2.23, 1.51, 6.76, repro,
2008-03-08,-1.39, 1.19, -8.21, 2.27, 1.55, 6.91, repro,
2008-03-09,-1.05, 1.61, -7.43, 2.28, 1.54, 7.04, repro,
2008-03-10,0.91, 0.92, -11.28, 2.26, 1.52, 6.87, repro,
2008-03-11,-0.77, 2.57, -15.44, 2.24, 1.53, 6.89, repro,
2008-03-12,1.24, 1.99, -2.93, 2.22, 1.51, 6.80, repro,
2008-03-13,-0.98, 1.16, 5.74, 2.77, 1.85, 8.21, repro,
2008-03-14,-1.52, 0.07, -12.81, 2.22, 1.51, 6.81, repro,
2008-03-15,-0.53, 0.48, -9.98, 2.20, 1.51, 6.78, repro,
2008-03-16,0.14, 2.33, -5.14, 2.24, 1.52, 6.86, repro,
2008-03-17,-0.33, 2.27, -14.21, 2.36, 1.61, 7.22, repro,
2008-03-18,-1.45, 1.84, -8.46, 2.28, 1.56, 7.02, repro,
2008-03-19,0.06, 2.21, -10.36, 2.47, 1.65, 7.44, repro,
2008-03-20,-1.76, 1.02, -14.59, 2.26, 1.52, 6.90, repro,
2008-03-21,1.40, 1.72, -12.63, 2.30, 1.54, 6.99, repro,
2008-03-22,0.45, 2.93, -11.20, 2.29, 1.53, 6.95, repro,
2008-03-23,-0.55, 0.89, -7.58, 2.28, 1.51, 6.87, repro,
2008-03-24,-0.81, 1.95, -2.35, 2.27, 1.53, 6.93, repro,
2008-03-25,-2.18, 1.71, -3.48, 2.29, 1.57, 7.03, repro,
2008-03-26,-1.09, 2.02, -11.09, 2.30, 1.56, 7.03, repro,
2008-03-27,-0.35, 0.94, -3.96, 3.06, 2.08, 9.84, repro,
2008-03-28,0.40, 2.13, -10.26, 2.26, 1.51, 6.80, repro,
2008-03-29,-0.42, 1.90, -9.56, 2.27, 1.50, 6.81, repro,
2008-03-30,-0.21, 1.58, -17.26, 2.27, 1.50, 6.86, repro,
2008-03-31,-1.20, 1.01, -10.79, 2.26, 1.50, 6.84, repro,
2008-04-01,-0.17, 1.48, -6.82, 2.30, 1.53, 6.95, repro,
2008-04-02,-1.72, 1.85, -2.97, 2.32, 1.51, 6.91, repro,
2008-04-03,-0.90, 0.33, -2.62, 2.26, 1.48, 6.76, repro,
2008-04-04,0.49, 0.25, -8.79, 2.26, 1.49, 6.79, repro,
2008-04-05,-0.76, 0.99, -0.85, 2.26, 1.50, 6.84, repro,
2008-04-06,-0.88, 0.49, -14.69, 2.26, 1.50, 6.79, repro,
2008-04-07,-0.62, 1.33, -13.83, 2.26, 1.49, 6.79, repro,
2008-04-08,0.63, 0.70, -11.99, 2.27, 1.50, 6.82, repro,
2008-04-09,0.01, 1.67, -12.14, 2.29, 1.53, 6.91, repro,
2008-04-10,-0.88, 1.46, -14.63, 2.27, 1.49, 6.81, repro,
2008-04-11,-0.70, 1.31, -10.15, 2.30, 1.52, 6.97, repro,
2008-04-12,0.11, 1.82, -14.85, 2.27, 1.53, 6.97, repro,
2008-04-13,-1.15, 1.91, -5.22, 2.32, 1.52, 6.93, repro,
2008-04-14,-1.54, -0.00, -1.24, 2.27, 1.50, 6.83, repro,
2008-04-15,-0.08, 0.88, 6.71, 2.30, 1.55, 6.94, repro,
2008-04-16,-1.88, 0.92, -3.01, 2.36, 1.57, 7.05, repro,
2008-04-17,-0.54, 0.91, 1.91, 2.34, 1.54, 7.07, repro,
2008-04-18,-1.20, 1.85, -3.44, 2.27, 1.50, 6.85, repro,
2008-04-19,-0.49, 4.91, -28.78, 2.27, 1.50, 6.84, repro,
2008-04-20,-0.83, 1.64, -1.30, 2.28, 1.50, 6.86, repro,
2008-04-21,-0.21, 1.34, -7.99, 2.27, 1.49, 6.81, repro,
2008-04-22,0.27, 1.71, -3.45, 2.34, 1.53, 7.05, repro,
2008-04-23,0.35, 1.07, -3.10, 2.33, 1.54, 7.10, repro,
2008-04-24,-0.85, 1.79, -9.36, 2.39, 1.60, 7.21, repro,
2008-04-25,-0.83, 0.20, -4.17, 2.26, 1.49, 6.80, repro,
2008-04-26,0.74, 1.05, -12.44, 2.37, 1.52, 6.93, repro,
2008-04-27,0.28, 0.08, -6.48, 2.34, 1.50, 6.77, repro,
2008-04-28,0.17, 0.72, -16.03, 2.36, 1.51, 6.87, repro,
2008-04-29,1.79, 1.70, -0.02, 2.40, 1.54, 7.03, repro,
2008-04-30,-0.47, -0.20, -7.43, 2.26, 1.50, 6.80, repro,
2008-05-01,0.50, 1.08, -3.82, 2.24, 1.50, 6.80, repro,
2008-05-02,0.66, 1.59, -8.78, 2.25, 1.48, 6.75, repro,
2008-05-03,0.63, 1.71, -8.10, 2.24, 1.48, 6.73, repro,
2008-05-04,1.69, 1.49, -8.91, 2.32, 1.55, 7.03, repro,
2008-05-05,1.60, 2.51, -3.37, 2.31, 1.53, 6.95, repro,
2008-05-06,0.28, -0.21, -3.72, 2.27, 1.50, 6.85, repro,
2008-05-07,0.04, 0.55, -4.05, 2.25, 1.49, 6.75, repro,
2008-05-08,0.07, 1.26, -0.60, 2.26, 1.50, 6.83, repro,
2008-05-09,0.71, 1.14, -11.05, 2.26, 1.50, 6.83, repro,
2008-05-10,-1.55, 1.44, -2.85, 2.28, 1.50, 6.86, repro,
2008-05-11,-0.93, 1.04, -1.37, 2.28, 1.49, 6.81, repro,
2008-05-12,-2.81, -0.02, 0.84, 2.40, 1.60, 7.24, repro,
2008-05-13,-0.30, 1.23, -2.90, 2.24, 1.48, 6.73, repro,
2008-05-14,-0.15, -0.08, -5.69, 2.25, 1.49, 6.78, repro,
2008-05-15,-0.88, 1.05, -7.57, 2.26, 1.48, 6.76, repro,
2008-05-16,-1.88, 0.52, -11.90, 2.27, 1.48, 6.76, repro,
2008-05-17,0.58, -0.86, 0.12, 3.33, 2.03, 9.28, repro,
2008-05-18,-3.00, 1.03, 3.05, 2.25, 1.48, 6.72, repro,
2008-05-19,1.14, 0.62, 1.68, 2.25, 1.48, 6.76, repro,
2008-05-20,-1.16, 0.14, -5.31, 2.29, 1.49, 6.87, repro,
2008-05-21,0.31, -0.51, 5.04, 2.26, 1.49, 6.78, repro,
2008-05-22,-1.81, 1.47, -3.88, 2.26, 1.51, 6.83, repro,
2008-05-23,-1.98, 0.40, -0.29, 2.28, 1.52, 6.92, repro,
2008-05-24,-1.58, 0.07, 2.68, 2.24, 1.49, 6.74, repro,
2008-05-25,-1.77, 1.04, 2.86, 2.24, 1.49, 6.75, repro,
2008-05-26,-2.53, 0.90, 1.54, 2.25, 1.49, 6.76, repro,
2008-05-27,-1.59, 0.73, -0.00, 2.46, 1.64, 7.34, repro,
2008-05-28,-1.72, 0.42, -8.35, 2.29, 1.53, 6.97, repro,
2008-05-29,-2.66, 0.31, 1.83, 2.25, 1.50, 6.76, repro,
2008-05-30,-2.65, 1.19, 2.50, 2.25, 1.49, 6.75, repro,
2008-05-31,-3.07, -0.22, -0.46, 2.25, 1.49, 6.78, repro,
2008-06-01,-3.26, -0.79, -2.32, 2.26, 1.48, 6.73, repro,
2008-06-02,-1.79, 0.01, 0.10, 2.27, 1.49, 6.76, repro,
2008-06-03,-0.75, -0.51, -2.25, 2.33, 1.55, 7.02, repro,
2008-06-04,-3.13, -1.34, 0.01, 2.45, 1.64, 7.41, repro,
2008-06-05,-2.64, -1.17, -1.37, 2.26, 1.49, 6.79, repro,
2008-06-06,-2.17, 0.50, 1.80, 2.29, 1.50, 6.80, repro,
2008-06-07,-1.67, -0.81, 5.61, 2.33, 1.54, 6.96, repro,
2008-06-08,-1.57, -1.98, -1.94, 2.30, 1.52, 6.85, repro,
2008-06-09,-4.43, -0.59, -0.97, 2.30, 1.54, 6.93, repro,
2008-06-10,-1.89, -0.17, 4.39, 2.26, 1.50, 6.84, repro,
2008-06-11,-2.35, -0.47, -10.51, 2.23, 1.48, 6.71, repro,
2008-06-12,-3.22, -0.26, -1.30, 2.26, 1.50, 6.84, repro,
2008-06-13,-1.63, -0.03, -0.60, 2.26, 1.49, 6.78, repro,
2008-06-14,0.45, -1.69, -5.55, 2.33, 1.54, 6.97, repro,
2008-06-15,-1.75, -1.50, -2.46, 2.33, 1.55, 7.04, repro,
2008-06-16,-2.04, 0.03, -4.24, 2.26, 1.49, 6.80, repro,
2008-06-17,-4.48, -0.02, -0.77, 2.24, 1.48, 6.74, repro,
2008-06-18,-3.66, 0.30, -3.00, 2.24, 1.49, 6.77, repro,
2008-06-19,-2.07, 0.27, -0.96, 2.27, 1.54, 7.01, repro,
2008-06-20,-1.73, -0.08, -0.06, 2.26, 1.50, 6.83, repro,
2008-06-21,-2.11, -0.07, -4.67, 2.30, 1.51, 6.97, repro,
2008-06-22,-2.49, -0.68, -3.95, 2.25, 1.50, 6.80, repro,
2008-06-23,-3.27, 0.81, -0.51, 2.23, 1.48, 6.71, repro,
2008-06-24,-3.14, 0.04, -0.02, 2.23, 1.48, 6.71, repro,
2008-06-25,-3.52, -0.82, 2.87, 2.24, 1.50, 6.79, repro,
2008-06-26,-1.65, -1.44, 7.56, 2.29, 1.56, 7.03, repro,
2008-06-27,-3.51, -0.88, 3.67, 2.27, 1.53, 6.99, repro,
2008-06-28,-3.33, -0.34, -3.27, 2.27, 1.49, 6.81, repro,
2008-06-29,-3.51, 0.51, 1.53, 2.24, 1.49, 6.76, repro,
2008-06-30,-2.34, -1.05, 0.88, 2.25, 1.51, 6.84, repro,
2008-07-01,-1.70, -1.53, -0.49, 2.30, 1.53, 7.00, repro,
2008-07-02,-3.10, -1.41, -6.32, 2.31, 1.54, 7.02, repro,
2008-07-03,-1.18, -0.19, 5.22, 2.29, 1.51, 6.88, repro,
2008-07-04,-4.85, 0.52, 5.47, 2.24, 1.50, 6.79, repro,
2008-07-05,-2.95, -1.35, 1.97, 2.25, 1.49, 6.79, repro,
2008-07-06,0.07, -0.96, 6.06, 2.25, 1.50, 6.83, repro,
2008-07-07,-1.51, -2.09, 0.62, 2.25, 1.51, 6.83, repro,
2008-07-08,-1.71, -0.97, 1.93, 2.29, 1.52, 6.89, repro,
2008-07-09,-4.09, -0.86, 7.67, 2.24, 1.49, 6.78, repro,
2008-07-10,-1.48, -2.65, 4.98, 2.32, 1.53, 6.96, repro,
2008-07-11,-2.62, -2.75, 0.71, 2.35, 1.56, 7.07, repro,
2008-07-12,-3.18, -2.49, 8.92, 2.26, 1.50, 6.88, repro,
2008-07-13,-1.62, -1.48, 8.81, 2.29, 1.56, 7.08, repro,
2008-07-14,-1.78, -0.83, 7.53, 2.24, 1.50, 6.79, repro,
2008-07-15,-1.76, -1.19, 7.57, 2.24, 1.48, 6.74, repro,
2008-07-16,-1.82, -1.86, 2.43, 2.33, 1.53, 6.99, repro,
2008-07-17,-2.05, -1.04, 5.93, 2.25, 1.49, 6.80, repro,
2008-07-18,0.53, -2.11, 6.58, 2.31, 1.52, 6.93, repro,
2008-07-19,-3.25, -0.89, 8.21, 2.31, 1.51, 6.91, repro,
2008-07-20,-4.25, -0.89, 11.67, 2.25, 1.50, 6.80, repro,
2008-07-21,-4.04, -2.04, 18.34, 2.26, 1.52, 6.86, repro,
2008-07-22,-1.82, -0.93, 7.24, 2.24, 1.50, 6.77, repro,
2008-07-23,-3.11, -1.20, 11.19, 2.30, 1.51, 6.85, repro,
2008-07-24,-2.26, -0.86, 3.94, 2.26, 1.51, 6.88, repro,
2008-07-25,-3.60, -1.44, 7.64, 2.26, 1.49, 6.79, repro,
2008-07-26,-3.89, -2.17, 8.70, 2.26, 1.49, 6.80, repro,
2008-07-27,-0.81, -1.56, 14.18, 2.26, 1.50, 6.81, repro,